Hinckley, MN

7:49 AM CST on December 08, 2019 (GMT -0600)
Hinckley

Weather History for K04W - October, 2019

Change the Weather History Date:

Friday, October 11, 2019

  Actual Average (WUND) Record (WUND)
Temperature  
Mean Temperature 46 °F -  
Max Temperature 60 °F - - (-1)
Min Temperature 32 °F - - (-1)
Degree Days  
Heating Degree Days 19    
Moisture  
Dew Point 36 °F    
Average Humidity 89    
Maximum Humidity 100    
Minimum Humidity 65    
Precipitation  
Precipitation 0.12 in - - ()
Sea Level Pressure  
Sea Level Pressure 29.65 in    
Wind  
Wind Speed 14 mph (SSW)    
Max Wind Speed 25 mph    
Max Gust Speed 34 mph    
Visibility 9 miles    
Events Rain , Snow    
Averages and records for this station are not official NWS values.
T = Trace of Precipitation, MM = Missing Value Source: NWS Daily Summary

Daily Weather History Graph

Daily Weather History Graph

Search for Another Location

Airport or City:

Astronomy

Oct. 11, 2019 Rise Set
Actual Time 7:22 AM CDT 6:33 PM CDT
Civil Twilight 6:52 AM CDT 7:03 PM CDT
Nautical Twilight 6:18 AM CDT 7:37 PM CDT
Astronomical Twilight 5:43 AM CDT 8:12 PM CDT
Moon 6:12 PM CDT (10/11) 4:52 AM CDT (10/11)
Length of Visible Light 12h 10m
Length of Day
11h 10m
Waxing Gibbous, 96% of the Moon is Illuminated
Oct 11
Waxing Gibbous
Oct 13
Full
Oct 21
Last Quarter
Oct 27
New
Nov 4
First Quarter

Hourly Weather History & Observations

Time (CDT) Temp. Windchill Dew Point Humidity Pressure Visibility Wind Dir Wind Speed Gust Speed Precip Events Conditions
12:18 AM 60.8 °F - 59.0 °F 94% 29.63 in 5.0 mi SE 9.2 mph - N/A   Overcast
12:36 AM 60.8 °F - 59.0 °F 94% 29.62 in 4.0 mi SE 8.1 mph - N/A   Overcast
12:55 AM 60.8 °F - 60.8 °F 100% 29.61 in 3.0 mi SE 6.9 mph - 0.01 in   Light Drizzle
1:15 AM 60.8 °F - 60.8 °F 100% 29.61 in 3.0 mi SSE 8.1 mph - N/A   Light Drizzle
1:16 AM 60.8 °F - 60.8 °F 100% 29.61 in 3.0 mi SSE 6.9 mph - N/A   Light Drizzle
1:35 AM 55.4 °F - 55.4 °F 100% 29.61 in 5.0 mi WSW 13.8 mph - N/A   Drizzle
1:40 AM 53.6 °F - 53.6 °F 100% 29.62 in 4.0 mi SW 13.8 mph - 0.01 in Rain Rain
1:57 AM 51.8 °F - 50.0 °F 94% 29.61 in 3.0 mi WSW 13.8 mph 18.4 mph 0.02 in   Drizzle
2:15 AM 50.0 °F - 50.0 °F 100% 29.62 in 3.0 mi SW 10.4 mph - N/A   Light Drizzle
2:35 AM 48.2 °F - 48.2 °F 100% 29.61 in 3.0 mi SW 9.2 mph - N/A   Drizzle
2:36 AM 48.2 °F - 48.2 °F 100% 29.61 in 3.0 mi SSW 8.1 mph - N/A   Drizzle
2:55 AM 46.4 °F 41.5 °F 44.6 °F 93% 29.62 in 7.0 mi SW 10.4 mph 21.9 mph 0.04 in Rain Light Rain
2:56 AM 46.4 °F 41.5 °F 44.6 °F 93% 29.62 in 7.0 mi SW 10.4 mph 21.9 mph 0.05 in Rain Rain
3:18 AM 44.6 °F 39.7 °F 42.8 °F 93% 29.62 in 7.0 mi SW 9.2 mph - 0.04 in Rain Rain
3:36 AM 42.8 °F 35.8 °F 42.8 °F 100% 29.64 in 7.0 mi SW 13.8 mph 20.7 mph 0.04 in   Light Drizzle
3:56 AM 41.0 °F 33.9 °F 41.0 °F 100% 29.64 in 10.0 mi SW 12.7 mph 19.6 mph 0.04 in   Overcast
4:15 AM 41.0 °F 35.8 °F 41.0 °F 100% 29.64 in 10.0 mi SSW 8.1 mph - N/A   Overcast
4:35 AM 41.0 °F 34.3 °F 41.0 °F 100% 29.65 in 10.0 mi SW 11.5 mph 17.3 mph N/A   Overcast
4:39 AM 41.0 °F 34.7 °F 41.0 °F 100% 29.64 in 10.0 mi SSW 10.4 mph 17.3 mph N/A   Overcast
4:58 AM 39.2 °F 32.5 °F 39.2 °F 100% 29.64 in 10.0 mi SSW 10.4 mph - N/A   Overcast
5:35 AM 37.4 °F 28.9 °F 37.4 °F 100% 29.66 in 10.0 mi SSW 13.8 mph 21.9 mph N/A   Overcast
5:36 AM 37.4 °F 28.9 °F 37.4 °F 100% 29.66 in 10.0 mi SW 13.8 mph 21.9 mph N/A   Overcast
5:55 AM 37.4 °F 27.8 °F 37.4 °F 100% 29.66 in 4.0 mi SSW 17.3 mph 24.2 mph N/A   Overcast
5:56 AM 37.4 °F 27.2 °F 37.4 °F 100% 29.67 in 4.0 mi SSW 19.6 mph 24.2 mph N/A   Overcast
6:17 AM 37.4 °F 28.2 °F 35.6 °F 93% 29.66 in 7.0 mi SW 16.1 mph - N/A   Overcast
6:35 AM 35.6 °F 25.5 °F 35.6 °F 100% 29.68 in 10.0 mi SW 17.3 mph 23.0 mph N/A   Overcast
6:55 AM 35.6 °F 27.5 °F 35.6 °F 100% 29.69 in 10.0 mi SW 11.5 mph 24.2 mph N/A   Overcast
6:56 AM 35.6 °F 26.6 °F 35.6 °F 100% 29.69 in 10.0 mi SSW 13.8 mph 24.2 mph N/A   Overcast
7:15 AM 35.6 °F 26.6 °F 33.8 °F 93% 29.67 in 10.0 mi SW 13.8 mph 18.4 mph N/A   Overcast
7:20 AM 35.6 °F 27.5 °F 33.8 °F 93% 29.67 in 10.0 mi SW 11.5 mph 18.4 mph N/A   Overcast
7:37 AM 35.6 °F 28.6 °F 35.6 °F 100% 29.68 in 5.0 mi SSW 9.2 mph - N/A Rain Light Rain
7:56 AM 35.6 °F 27.1 °F 33.8 °F 93% 29.68 in 7.0 mi SSW 12.7 mph - N/A   Drizzle
8:15 AM 35.6 °F 28.0 °F 33.8 °F 93% 29.69 in 10.0 mi SSW 10.4 mph 17.3 mph N/A   Overcast
8:16 AM 35.6 °F 28.0 °F 33.8 °F 93% 29.68 in 10.0 mi SSW 10.4 mph 17.3 mph N/A Snow Light Snow
8:35 AM 35.6 °F 26.2 °F 33.8 °F 93% 29.68 in 7.0 mi SSW 15.0 mph 19.6 mph N/A   Overcast
8:59 AM 35.6 °F 26.6 °F 33.8 °F 93% 29.71 in 7.0 mi SSW 13.8 mph 17.3 mph N/A Rain Light Rain
9:16 AM 35.6 °F 27.1 °F 33.8 °F 93% 29.69 in 10.0 mi SSW 12.7 mph 18.4 mph N/A   Overcast
9:36 AM 35.6 °F 26.2 °F 33.8 °F 93% 29.71 in 10.0 mi SSW 15.0 mph 19.6 mph N/A   Overcast
9:55 AM 35.6 °F 25.9 °F 33.8 °F 93% 29.71 in 7.0 mi SSW 16.1 mph 20.7 mph N/A Rain Light Rain
9:56 AM 35.6 °F 26.6 °F 33.8 °F 93% 29.71 in 7.0 mi SSW 13.8 mph 20.7 mph N/A Rain Light Rain
10:15 AM 35.6 °F 26.6 °F 33.8 °F 93% 29.70 in 10.0 mi SSW 13.8 mph 20.7 mph N/A Rain Light Rain
10:20 AM 35.6 °F 25.9 °F 33.8 °F 93% 29.70 in 10.0 mi SW 16.1 mph 21.9 mph N/A Rain Light Rain
10:37 AM 37.4 °F 27.8 °F 32.0 °F 81% 29.70 in 10.0 mi SSW 17.3 mph 23.0 mph N/A   Overcast
10:55 AM 35.6 °F 25.9 °F 32.0 °F 87% 29.71 in 7.0 mi SW 16.1 mph 23.0 mph N/A   Overcast
11:15 AM 37.4 °F 27.5 °F 32.0 °F 81% 29.70 in 10.0 mi SSW 18.4 mph 26.5 mph N/A   Overcast
11:16 AM 37.4 °F 28.2 °F 32.0 °F 81% 29.70 in 10.0 mi SSW 16.1 mph 26.5 mph N/A   Overcast
11:35 AM 37.4 °F 28.9 °F 32.0 °F 81% 29.69 in 10.0 mi SSW 13.8 mph 23.0 mph N/A   Overcast
11:58 AM 37.4 °F 27.2 °F 32.0 °F 81% 29.69 in 10.0 mi SSW 19.6 mph 26.5 mph N/A   Overcast
12:16 PM 37.4 °F 27.5 °F 32.0 °F 81% 29.68 in 10.0 mi SSW 18.4 mph 23.0 mph N/A   Overcast
12:36 PM 37.4 °F 27.5 °F 32.0 °F 81% 29.68 in 10.0 mi SSW 18.4 mph 32.2 mph N/A   Overcast
12:55 PM 41.0 °F 32.5 °F 32.0 °F 70% 29.67 in 10.0 mi SSW 17.3 mph 31.1 mph N/A   Overcast
1:15 PM 39.2 °F 29.3 °F 32.0 °F 75% 29.67 in 10.0 mi SSW 20.7 mph 29.9 mph N/A   Overcast
1:19 PM 41.0 °F 31.1 °F 32.0 °F 70% 29.67 in 10.0 mi SSW 23.0 mph 29.9 mph N/A   Overcast
1:38 PM 37.4 °F 28.2 °F 32.0 °F 81% 29.66 in 10.0 mi SSW 16.1 mph 27.6 mph N/A   Overcast
1:55 PM 37.4 °F 26.9 °F 30.2 °F 75% 29.66 in 10.0 mi SSW 20.7 mph 31.1 mph N/A   Overcast
2:15 PM 37.4 °F 26.6 °F 30.2 °F 75% 29.66 in 10.0 mi SSW 21.9 mph 28.8 mph N/A   Overcast
2:16 PM 37.4 °F 26.9 °F 30.2 °F 75% 29.66 in 10.0 mi SSW 20.7 mph 28.8 mph N/A   Overcast
2:35 PM 37.4 °F 26.1 °F 30.2 °F 75% 29.66 in 10.0 mi SSW 24.2 mph 29.9 mph N/A   Overcast
2:36 PM 37.4 °F 26.6 °F 30.2 °F 75% 29.66 in 10.0 mi SSW 21.9 mph 29.9 mph N/A   Overcast
2:58 PM 39.2 °F 29.0 °F 30.2 °F 70% 29.65 in 10.0 mi SSW 21.9 mph 27.6 mph N/A   Overcast
3:16 PM 39.2 °F 28.3 °F 30.2 °F 70% 29.65 in 10.0 mi SSW 25.3 mph 29.9 mph N/A   Overcast
3:35 PM 37.4 °F 27.8 °F 28.4 °F 70% 29.64 in 10.0 mi SSW 17.3 mph 33.4 mph N/A   Overcast
3:36 PM 37.4 °F 26.6 °F 28.4 °F 70% 29.64 in 10.0 mi SSW 21.9 mph 32.2 mph N/A   Overcast
3:55 PM 39.2 °F 28.7 °F 28.4 °F 65% 29.64 in 10.0 mi SSW 23.0 mph 31.1 mph N/A   Overcast
3:56 PM 39.2 °F 29.0 °F 28.4 °F 65% 29.64 in 10.0 mi SSW 21.9 mph 31.1 mph N/A   Overcast
4:18 PM 39.2 °F 28.7 °F 28.4 °F 65% 29.64 in 10.0 mi SSW 23.0 mph 32.2 mph N/A   Overcast
4:36 PM 37.4 °F 26.4 °F 28.4 °F 70% 29.64 in 10.0 mi SW 23.0 mph 28.8 mph N/A   Overcast
4:56 PM 37.4 °F 27.2 °F 30.2 °F 75% 29.64 in 10.0 mi SSW 19.6 mph 27.6 mph N/A   Overcast
5:15 PM 37.4 °F 26.4 °F 30.2 °F 75% 29.65 in 4.0 mi SW 23.0 mph 34.5 mph N/A   Overcast
5:16 PM 37.4 °F 26.4 °F 30.2 °F 75% 29.65 in 4.0 mi SW 23.0 mph 34.5 mph N/A   Overcast
5:35 PM 35.6 °F 24.8 °F 30.2 °F 81% 29.64 in 10.0 mi SSW 19.6 mph 29.9 mph N/A   Mostly Cloudy
5:39 PM 35.6 °F 25.5 °F 32.0 °F 87% 29.64 in 10.0 mi SSW 17.3 mph 29.9 mph N/A   Mostly Cloudy
5:57 PM 35.6 °F 24.2 °F 30.2 °F 81% 29.64 in 10.0 mi SSW 21.9 mph 27.6 mph N/A   Mostly Cloudy
6:15 PM 35.6 °F 25.2 °F 30.2 °F 81% 29.64 in 10.0 mi SW 18.4 mph 24.2 mph N/A   Mostly Cloudy
6:16 PM 35.6 °F 25.5 °F 30.2 °F 81% 29.64 in 10.0 mi SW 17.3 mph 24.2 mph N/A   Mostly Cloudy
6:35 PM 33.8 °F 23.2 °F 32.0 °F 93% 29.64 in 10.0 mi SSW 17.3 mph 26.5 mph N/A   Mostly Cloudy
6:36 PM 33.8 °F 23.5 °F 32.0 °F 93% 29.64 in 10.0 mi SSW 16.1 mph 26.5 mph N/A   Mostly Cloudy
6:55 PM 33.8 °F 24.8 °F 30.2 °F 87% 29.64 in 10.0 mi SSW 12.7 mph 18.4 mph N/A   Mostly Cloudy
6:59 PM 33.8 °F 23.2 °F 30.2 °F 87% 29.64 in 10.0 mi SSW 17.3 mph 25.3 mph N/A   Mostly Cloudy
7:18 PM 33.8 °F 22.5 °F 30.2 °F 87% 29.64 in 10.0 mi SSW 19.6 mph 26.5 mph N/A   Overcast
7:36 PM 32.0 °F 23.6 °F 32.0 °F 100% 29.64 in 10.0 mi SSW 10.4 mph 19.6 mph N/A   Mostly Cloudy
7:55 PM 33.8 °F 23.9 °F 32.0 °F 93% 29.64 in 10.0 mi SSW 15.0 mph 21.9 mph N/A Snow Light Snow
8:15 PM 33.8 °F 23.2 °F 32.0 °F 93% 29.64 in 7.0 mi SSW 17.3 mph 27.6 mph N/A Snow Light Snow
8:19 PM 33.8 °F 22.5 °F 32.0 °F 93% 29.64 in 10.0 mi SW 19.6 mph 27.6 mph N/A Snow Light Snow
8:37 PM 33.8 °F 23.2 °F 32.0 °F 93% 29.64 in 10.0 mi SSW 17.3 mph 24.2 mph N/A   Overcast
8:55 PM 33.8 °F 23.2 °F 30.2 °F 87% 29.64 in 10.0 mi SSW 17.3 mph 25.3 mph N/A   Overcast
9:15 PM 33.8 °F 22.8 °F 30.2 °F 87% 29.63 in 10.0 mi SSW 18.4 mph 24.2 mph N/A Snow Light Snow
9:16 PM 33.8 °F 22.8 °F 30.2 °F 87% 29.63 in 10.0 mi SSW 18.4 mph 24.2 mph N/A Snow Light Snow
9:35 PM 33.8 °F 23.2 °F 30.2 °F 87% 29.63 in 10.0 mi SSW 17.3 mph 24.2 mph N/A   Overcast
9:57 PM 33.8 °F 23.9 °F 32.0 °F 93% 29.63 in 10.0 mi SSW 15.0 mph 21.9 mph N/A   Overcast
10:16 PM 32.0 °F 20.5 °F 32.0 °F 100% 29.62 in 10.0 mi SSW 18.4 mph 26.5 mph N/A Snow Light Snow
10:35 PM 32.0 °F 19.2 °F 32.0 °F 100% 29.62 in 10.0 mi SSW 23.0 mph 26.5 mph N/A Snow Light Snow
10:36 PM 32.0 °F 19.8 °F 32.0 °F 100% 29.62 in 10.0 mi SSW 20.7 mph 26.5 mph N/A Snow Light Snow
10:55 PM 32.0 °F 20.5 °F 32.0 °F 100% 29.61 in 10.0 mi SSW 18.4 mph 27.6 mph N/A   Overcast
11:18 PM 33.8 °F 22.5 °F 32.0 °F 93% 29.60 in 10.0 mi SSW 19.6 mph 26.5 mph N/A   Overcast
11:37 PM 33.8 °F 22.8 °F 32.0 °F 93% 29.59 in 10.0 mi SSW 18.4 mph 27.6 mph N/A Snow Light Snow
11:56 PM 33.8 °F 22.5 °F 32.0 °F 93% 29.59 in 10.0 mi SSW 19.6 mph 25.3 mph N/A   Overcast